Location: Waldport
(44.4270°N, 124.0680°W)
Time: 07:11:08
(UTC-08:00)

N. Korean satellite - Visible Passes

Search period start: 22 February 2019 00:00
Search period end: 04 March 2019 00:00
Orbit: 456 x 510 km, 97.2° (Epoch: 21 February)

Date Brightness Start Highest point End Pass type
(mag) Time Alt. Az. Time Alt. Az. Time Alt. Az.
23 Feb 7.2 06:21:34 10° NNE 06:25:00 59° E 06:28:23 10° S visible
23 Feb 9.9 18:32:55 10° SW 18:35:34 19° W 18:38:13 10° NW visible
24 Feb 8.9 05:57:09 10° NE 06:00:10 28° E 06:03:10 10° SSE visible
25 Feb 9.9 05:33:19 10° ENE 05:35:15 14° E 05:37:10 10° SE visible
26 Feb 10.6 18:53:46 10° WSW 18:54:54 11° W 18:56:02 10° WNW visible
27 Feb 7.6 06:16:01 10° NNE 06:19:23 50° E 06:22:43 10° S visible
27 Feb 9.7 18:27:08 10° SSW 18:29:58 21° W 18:32:46 10° NW visible
28 Feb 9.2 05:51:40 10° NE 05:54:31 24° E 05:57:22 10° SSE visible
01 Mar 10.1 05:28:05 10° ENE 05:29:34 12° E 05:31:04 10° ESE visible
02 Mar 10.4 18:47:35 10° WSW 18:49:14 13° W 18:50:54 10° WNW visible
03 Mar 8.0 06:10:26 10° NNE 06:13:43 42° E 06:17:00 10° S visible
